Location: Hylvaty SDH
(49.9612°N, 16.4057°E)
Time: 01:24:15
(UTC+01:00)

Tiros 1 - Visible Passes

Search period start: 26 January 2021 00:00
Search period end: 05 February 2021 00:00
Orbit: 630 x 663 km, 48.4° (Epoch: 25 January)

Date Brightness Start Highest point End Pass type
(mag) Time Alt. Az. Time Alt. Az. Time Alt. Az.
26 Jan 7.5 18:07:41 10° WSW 18:12:13 53° SSE 18:14:40 25° E visible
26 Jan 8.6 19:49:35 10° W 19:52:19 35° W 19:52:19 35° W visible
27 Jan 7.2 18:33:28 10° WSW 18:38:06 69° S 18:39:36 41° ESE visible
27 Jan 9.4 20:15:34 10° W 20:17:15 22° W 20:17:15 22° W visible
28 Jan 7.7 17:17:32 10° SW 17:22:03 51° SSE 17:26:33 10° E visible
28 Jan 7.0 18:59:25 10° W 19:04:04 75° S 19:04:31 67° SE visible
28 Jan 10.0 20:41:34 10° W 20:42:11 13° W 20:42:11 13° W visible
29 Jan 7.3 17:43:19 10° WSW 17:47:56 67° S 17:51:48 15° E visible
29 Jan 7.4 19:25:24 10° W 19:29:27 61° SW 19:29:27 61° SW visible
30 Jan 7.2 18:09:14 10° W 18:13:54 75° S 18:16:45 23° E visible
30 Jan 8.5 19:51:24 10° W 19:54:25 36° WSW 19:54:25 36° WSW visible
31 Jan 7.2 18:35:13 10° W 18:39:51 69° S 18:41:44 35° ESE visible
31 Jan 9.3 20:17:29 10° W 20:19:24 22° WSW 20:19:24 22° WSW visible
01 Feb 7.3 17:19:04 10° W 17:23:43 74° S 17:28:21 10° E visible
01 Feb 7.6 19:01:12 10° W 19:05:45 54° SSW 19:06:46 44° SSE visible
01 Feb 10.0 20:43:53 10° W 20:44:26 12° W 20:44:26 12° W visible
02 Feb 7.3 17:45:02 10° W 17:49:41 70° S 17:54:12 11° ESE visible
02 Feb 8.2 19:27:17 10° W 19:31:32 36° SSW 19:31:52 35° SSW visible
03 Feb 7.6 18:11:01 10° W 18:15:35 56° SSW 18:19:23 14° ESE visible
03 Feb 9.1 19:53:38 10° W 19:57:03 22° SW 19:57:03 22° SW visible
04 Feb 8.3 18:37:05 10° W 18:41:24 38° SSW 18:44:40 16° SE visible
04 Feb 9.9 20:21:09 10° WSW 20:22:22 11° SW 20:22:22 11° SW visible
